User: anonymous   Login
Location: Unspecified
(0.0000°N, 0.0000°E)
Time: 23:00:23
(UTC+00:00)
Language:

METEOR M2-2 - Orbit

View from above orbital plane
View from above orbital plane
View from above satellite
View from above satellite

Ground track
Ground track

The orbit data is extracted from the following two-line orbital elements,

1 44387U 19038A   21125.74191268 -.00000029  00000-0  65117-5 0  9993
2 44387  98.6672  86.1788 0002166  46.5431 313.5926 14.23687846 95396
Epoch (UTC): 05 May 2021 17:48:21
Eccentricity: 0.0002166
inclination: 98.6672°
perigee height: 811 km
apogee height: 814 km
right ascension of ascending node: 86.1788°
argument of perigee: 46.5431°
revolutions per day: 14.23687846
mean anomaly at epoch: 313.5926°
orbit number at epoch: 9539

The dashed part of the orbit path shows where the satellite is in the earth's shadow,  

DLR